Lexington Weather

Lexington, Massachusetts, USA

67°F
9/23/2021 4:46am 
  • Lexington Conditions: Overcast
  • Temperature: 67.1°F / 19.5°CWarmer 0.7°F than last hour.
  • Dew Point: 66.2°FIncreased 1.1°Fsince last hour.
  • Relative Humidity: 97%Increased 1.0% since last hour.
  • Wind: Calm, 10-min avg: Calm, gust: 3 mph
  • Barometer: 30.03 in Steady
  • Visibility: 10 miles
  • Rain Today: 0.00 in
  •   

Regional Weather Roundup
for Boston / Norton, MA

        
000
ASUS41 KBOX 211104
RWRBOX

REGIONAL WEATHER ROUNDUP
NATIONAL WEATHER SERVICE BOSTON/NORTON MA
700 AM EDT TUE SEP 21 2021

NOTE:  "FAIR" INDICATES FEW OR NO CLOUDS BELOW 12,000 FEET WITH NO 
SIGNIFICANT WEATHER AND/OR OBSTRUCTIONS TO VISIBILITY.

MAZALL-211200-
EASTERN MASSACHUSETTS
  
CITY           SKY/WX    TMP DP  RH WIND       PRES   REMARKS
BOSTON         PTCLDY    57  52  83 N5        30.41R                  
BEVERLY        PTCLDY    52  50  93 CALM      30.41S                  
LAWRENCE       FOG       51  51 100 NE3       30.44R VSB 1/4          
BEDFORD        MOCLDY    47  47 100 CALM      30.40S                  
BLUE HILL      NOT AVBL                                               
NORWOOD        MOCLDY    48  46  93 CALM      30.41R                  
MARSHFIELD     PTCLDY    50  50 100 CALM      30.40S                  
PLYMOUTH       PTCLDY    53  51  93 CALM      30.40S                  
TAUNTON        MOCLDY    45  43  93 CALM      30.40S                  
NEW BEDFORD    MOCLDY    51  51 100 CALM      30.39S                  
$$

MAZALL-211200-
CAPE COD AND THE ISLANDS
  
CITY           SKY/WX    TMP DP  RH WIND       PRES   REMARKS
FALMOUTH       PTCLDY    55  55 100 NE5       30.40R                  
HYANNIS        CLOUDY    54  54 100 CALM      30.39R                  
CHATHAM        CLEAR     63  60  90 E5        30.41R                  
PROVINCETOWN   CLOUDY    60  60 100 E6        30.41S                  
NANTUCKET      CLEAR     63  59  87 E8        30.39R                  
MARTHAS VNYRD  PTCLDY    50  49  96 CALM      30.39R                  
$$
 
MAZALL-211200-
CENTRAL AND WESTERN MASSACHUSETTS
  
CITY           SKY/WX    TMP DP  RH WIND       PRES   REMARKS
WORCESTER      CLEAR     53  51  93 NE5       30.41R                  
FITCHBURG      CLEAR     48  46  93 CALM      30.42R                  
ORANGE         MOCLDY    48  47  96 CALM      30.41S FOG              
SPRINGFIELD    MOCLDY    48  48 100 CALM      30.38R                  
WESTFIELD      FOG       52  52 100 NE3       30.39S VSB 1/4          
NORTH ADAMS    CLEAR     50  48  93 CALM      30.39R                  
PITTSFIELD     CLEAR     50  49  96 CALM      30.38R                  
$$
 
RIZALL-211200-
RHODE ISLAND
  
CITY           SKY/WX    TMP DP  RH WIND       PRES   REMARKS
PROVIDENCE     PTCLDY    53  51  93 N3        30.40S                  
NEWPORT        CLOUDY    54  54 100 CALM      30.39R                  
SMITHFIELD     CLEAR     49  48  97 CALM      30.41R                  
WESTERLY       CLEAR     48  48 100 N5        30.38S                  
$$
 
CTZALL-211200-
CONNECTICUT
  
CITY           SKY/WX    TMP DP  RH WIND       PRES   REMARKS
BRADLEY INTL   PTCLDY    51  51 100 CALM      30.39R                  
HARTFORD       CLEAR     54  51  90 CALM      30.39R                  
BRIDGEPORT     CLEAR     59  55  87 N9        30.36S                  
DANBURY        CLEAR     52  49  89 CALM      30.38S                  
GROTON         CLEAR     51  50  96 N5        30.38R                  
NEW HAVEN      CLEAR     54  53  97 N3        30.38R                  
CHESTER        FAIR      50  50 100 CALM      30.39R                  
MERIDEN        CLEAR     52  49  89 CALM      30.39R                  
WILLIMANTIC    CLOUDY    49  47  93 CALM      30.40S                  
OXFORD         CLEAR     54  53  97 E7        30.39R                  
$$

MEZ002-015-021-024-NHZ003-005-008-011-012-014-VTZ005-008-211200-
NORTHERN NEW ENGLAND
  
CITY           SKY/WX    TMP DP  RH WIND       PRES   REMARKS
PORTLAND ME    PTCLDY    49  48  97 CALM      30.43S                  
BANGOR ME      FOG       53  53 100 S3        30.44R VSB 1/4          
CONCORD NH     FOG       48  48 100 CALM      30.42S VSB 1/4          
MANCHESTER NH  FOG       52  50  93 N3        30.40S VSB 1/4          
NASHUA NH      FOG       49  49 100 NW5       30.43R VSB 1/4          
PORTSMOUTH NH  PTCLDY    50  49  96 CALM      30.43S                  
JAFFREY NH     MOCLDY    46  46 100 CALM      30.42R                  
KEENE NH       PTCLDY    47  47 100 S3        30.41S FOG              
BURLINGTON VT  PTCLDY    62  54  74 S13G20    30.33R                  
MT. WASHINGTON MOCLDY    50   0  12 S21         N/A                   
$$

NYZ052-076-211200-
EASTERN NEW YORK
  
CITY           SKY/WX    TMP DP  RH WIND       PRES   REMARKS
ALBANY         PTCLDY    52  52 100 CALM      30.36S                  
NEW YORK CITY  MOCLDY    65  55  70 E3        30.34R                  
$$
 
ANZALL-211200-
MARINE OBSERVATIONS
  
STATION/POSITION TIME  TEMP    WIND        PRES    VSBY  WAVE
                       AIR SEA DIR/SP/G                  HT/PER
                 (UTC) (F)     (DEG/KT/KT) (MB)    (MI)  (FT/S)
BOSTON BUOY      1040      64  120/  8/ 10 1030.1S
BUZZARDS BAY     1000          120/  8/ 10 1029.8S
NANTUCKET SOUND  1040   66 71  110/ 10/ 14 1028.9R
MASS BAY-STELLWA 1004   63     170/  8/ 10 1029.5R  1 7/8  3/ 8
ISLE OF SHOALS   1000   62     210/  7/  7 1029.5R
S OF BLOCK IS    1026      70                N/A           3/17
$$

......................KEY.........................
  SKY/WX - SKY CONDITION/PRESENT WEATHER
  TMP    - TEMPERATURE IN FAHRENHEIT
  DWPT   - DEWPOINT IN FAHRENHEIT
  RH     - RELATIVE HUMIDITY IN PERCENT
  WIND   - DIRECTION AND SPEED IN MPH
  PRES   - MEAN SEA LEVEL PRESSURE IN INCHES OF HG
  WCI    - WIND CHILL INDEX
  VSB    - VISIBILITY IN MILES
  HX     - HEAT INDEX
  TC     - TEMPERATURE IN CELSIUS
  VRB    - VARIABLE WIND DIRECTION
  N/A    - NOT AVAILABLE
  
      

Other recent Regional Weather Roundups

Thu Sep 23, 4:04am

Thu Sep 23, 3:04am

Thu Sep 23, 2:04am

Thu Sep 23, 1:04am

Thu Sep 23, 12:04am

Wed Sep 22, 11:04pm

Wed Sep 22, 10:04pm

Wed Sep 22, 9:04pm

Wed Sep 22, 8:04pm

Wed Sep 22, 7:04pm

Wed Sep 22, 6:04pm

Wed Sep 22, 5:04pm

Wed Sep 22, 4:04pm

Wed Sep 22, 3:04pm

Wed Sep 22, 2:04pm

Wed Sep 22, 1:04pm

Wed Sep 22, 12:05pm

Wed Sep 22, 11:04am

Wed Sep 22, 10:04am

Wed Sep 22, 9:04am

Wed Sep 22, 8:04am

Wed Sep 22, 7:04am

Wed Sep 22, 6:04am

Wed Sep 22, 5:04am

Wed Sep 22, 4:04am

Wed Sep 22, 3:04am

Wed Sep 22, 2:04am

Wed Sep 22, 1:04am

Wed Sep 22, 12:04am

Tue Sep 21, 11:04pm

Tue Sep 21, 10:04pm

Tue Sep 21, 9:04pm

Tue Sep 21, 8:04pm

Tue Sep 21, 7:04pm

Tue Sep 21, 6:04pm

Tue Sep 21, 5:04pm

Tue Sep 21, 4:04pm

Tue Sep 21, 3:04pm

Tue Sep 21, 2:04pm

Tue Sep 21, 1:04pm

Tue Sep 21, 12:04pm

Tue Sep 21, 11:04am

Tue Sep 21, 10:04am

Tue Sep 21, 9:04am

Tue Sep 21, 8:04am

Tue Sep 21, 6:04am

Tue Sep 21, 5:04am

Tue Sep 21, 4:04am

Tue Sep 21, 3:04am

Tue Sep 21, 2:04am

Tue Sep 21, 1:04am

Tue Sep 21, 12:04am

Mon Sep 20, 11:04pm

Mon Sep 20, 10:04pm

Mon Sep 20, 9:04pm

Mon Sep 20, 8:04pm

Mon Sep 20, 7:04pm

Mon Sep 20, 6:04pm

Mon Sep 20, 5:04pm

Mon Sep 20, 4:04pm

Mon Sep 20, 3:04pm

Mon Sep 20, 2:04pm

Mon Sep 20, 1:04pm

Mon Sep 20, 12:04pm

Mon Sep 20, 11:04am

Mon Sep 20, 10:04am

Mon Sep 20, 9:04am

Mon Sep 20, 7:04am

Mon Sep 20, 6:04am

Mon Sep 20, 5:04am

Mon Sep 20, 4:04am

Mon Sep 20, 3:04am

Mon Sep 20, 2:04am

Mon Sep 20, 1:04am

Mon Sep 20, 12:04am

Sun Sep 19, 11:04pm

Sun Sep 19, 10:04pm

Sun Sep 19, 9:04pm

Sun Sep 19, 8:04pm

Sun Sep 19, 7:04pm

Sun Sep 19, 6:04pm

Sun Sep 19, 5:04pm

Sun Sep 19, 4:04pm

Sun Sep 19, 3:04pm

Sun Sep 19, 2:05pm

Sun Sep 19, 1:04pm

Sun Sep 19, 12:04pm

Sun Sep 19, 11:04am

Sun Sep 19, 10:05am

Sun Sep 19, 9:04am

Sun Sep 19, 8:04am

Sun Sep 19, 7:04am

Sun Sep 19, 6:04am

Sun Sep 19, 5:04am

Sun Sep 19, 4:04am

Sun Sep 19, 3:04am

Sun Sep 19, 2:04am

Sun Sep 19, 1:04am

Sun Sep 19, 12:04am

Sat Sep 18, 11:05pm

Sat Sep 18, 10:04pm

Sat Sep 18, 9:04pm

Sat Sep 18, 8:04pm

Sat Sep 18, 7:04pm

Sat Sep 18, 6:04pm

Sat Sep 18, 5:04pm

Sat Sep 18, 4:04pm

Sat Sep 18, 3:04pm

Sat Sep 18, 2:04pm

Sat Sep 18, 1:04pm

Sat Sep 18, 12:04pm

Sat Sep 18, 11:04am

Sat Sep 18, 10:04am

Sat Sep 18, 9:04am

Sat Sep 18, 8:04am

Sat Sep 18, 7:04am

Sat Sep 18, 6:04am

Sat Sep 18, 5:04am

Sat Sep 18, 4:04am

Sat Sep 18, 3:04am

Sat Sep 18, 2:04am

Sat Sep 18, 1:04am

Sat Sep 18, 12:04am

Fri Sep 17, 11:04pm

Fri Sep 17, 10:04pm

Fri Sep 17, 9:04pm

Fri Sep 17, 8:04pm

Fri Sep 17, 7:04pm

Fri Sep 17, 6:04pm

Fri Sep 17, 5:04pm

Fri Sep 17, 4:04pm

Fri Sep 17, 3:04pm

Fri Sep 17, 2:04pm

Fri Sep 17, 1:04pm

Fri Sep 17, 12:05pm

Fri Sep 17, 11:04am

Fri Sep 17, 10:04am

Fri Sep 17, 9:04am

Fri Sep 17, 8:04am

Fri Sep 17, 7:04am

Fri Sep 17, 6:04am

Fri Sep 17, 5:04am

Fri Sep 17, 4:04am

Fri Sep 17, 3:04am

Fri Sep 17, 2:04am

Fri Sep 17, 1:04am

Fri Sep 17, 12:04am

Thu Sep 16, 11:04pm

Thu Sep 16, 10:04pm

Thu Sep 16, 9:04pm

Thu Sep 16, 8:04pm

Thu Sep 16, 7:04pm

Thu Sep 16, 6:04pm

Thu Sep 16, 5:04pm

Thu Sep 16, 4:04pm

Thu Sep 16, 3:04pm

Thu Sep 16, 2:04pm

Thu Sep 16, 1:05pm

Thu Sep 16, 12:04pm

Thu Sep 16, 11:05am

Thu Sep 16, 10:05am

Thu Sep 16, 9:04am

Thu Sep 16, 8:04am

Thu Sep 16, 7:04am

Thu Sep 16, 6:04am

Thu Sep 16, 5:04am

Meta data:

ID: 1be62552-a4eb-4e9b-8d7d-b2af4ab2583a
Link: https://api.weather.gov/products/1be62552-a4eb-4e9b-8d7d-b2af4ab2583a